Weather in Matlock

United Kingdom     53°08′21″N   1°33′26″W
temp.,
°C
wind,
m/s
gust,
m/s
humid.,
%
clouds,
%
prec.,
mm/h
press.,
hPa
HPBL,
m
18 april, sun
sun1801:00+1ssw1283100 0.0 102830
04:00+2wsw1177100 0.0 102714
07:00+3wsw1175100 0.0 102616
10:00+8ese1161100 0.0 1026465
13:00+11sse115496 0.0 10251263
16:00+12ese224829 0.0 10241589
19:00+10ese356446 0.0 1024262
22:00+4ese11695 0.0 102521
19 april, mon
mon1901:00+3sse11835 0.0 102513
04:00+2se00831 0.0 102410
07:00+3nnw00795 0.0 102413
10:00+9ese22595 0.0 1022509
13:00+12se335854 0.0 10211275
16:00+12sse225999 0.1 10191126
19:00+10ssw127099 0.1 101983
22:00+9se1168100 0.0 101916
20 april, tue
tue2001:00+8s2278100 0.0 101940
04:00+8sw1177100 0.0 101816
07:00+8w1176100 0.0 101824
10:00+10nw1269100 0.0 1019363
13:00+12nne1257100 0.3 10181341
16:00+10nw4672100 0.3 1019572
19:00+10nne357696 0.4 1020278
22:00+7nne3793100 0.4 1022515
21 april, wed
wed2101:00+5nne38865 0.4 1023349
04:00+3n22925 0.0 102536
07:00+3n23915 0.0 102672
10:00+8nne236310 0.0 1026843
13:00+11nne244851 0.0 10251685
16:00+13ne224370 0.0 10251802
19:00+10sse2262100 0.0 1026188
22:00+4ese248951 0.0 102891
22 april, thu
thu2201:00+2s119184 0.0 102836
04:00+2ssw118985 0.0 102825
07:00+3wsw11855 0.0 102821
10:00+9sse22655 0.0 1028518
13:00+13s22539 0.0 10281428
16:00+14s33507 0.0 10271590
19:00+12sse246536 0.0 1026371
22:00+6sse24906 0.0 1029104